Wind_Speed
31 31 31 32 33 33 32 30 29 28 28 27 27 27 26 26 25 24 23 22 21 20 20 19 18 18 18 18 17 17 16 15 14 14 14 14 14 14 14 14 13 13 13 13 12 12 12 12 12
31 31 32 33 34 34 33 31 30 28 28 28 28 27 27 27 26 25 24 23 23 22 21 20 20 20 20 19 19 19 18 17 16 16 16 15 15 16 16 16 16 15 15 15 15 15 14 14 14
31 32 32 34 35 34 33 31 31 30 29 29 29 28 28 27 26 26 25 24 24 23 22 22 21 21 20 20 20 20 20 19 18 18 17 17 17 17 18 18 18 18 17 17 17 16 16 16 16
30 30 32 33 33 32 31 31 31 31 30 30 29 29 28 27 26 26 25 25 24 24 23 23 22 21 21 21 21 21 21 21 20 19 19 19 18 18 18 19 20 20 20 20 19 19 18 18 17
29 29 31 32 31 31 31 31 30 31 31 31 31 30 29 27 26 26 25 25 25 25 25 24 24 23 23 23 23 23 23 23 23 22 21 21 21 21 21 21 21 21 21 21 21 21 21 21 20
28 29 31 31 31 31 31 31 30 30 31 31 31 31 30 29 28 27 26 26 26 26 26 26 26 25 25 24 24 25 25 25 24 24 23 23 23 23 23 23 23 23 23 23 23 23 23 23 23
28 29 30 30 31 31 31 30 31 31 32 32 32 32 31 30 29 28 27 27 28 27 27 27 27 28 27 26 26 27 26 26 26 25 25 25 25 25 25 25 25 25 25 25 25 25 25 24 24
26 28 29 29 30 31 31 31 31 32 33 33 33 33 32 31 31 30 29 29 29 29 29 29 29 30 29 29 28 28 28 28 28 28 27 27 28 27 27 28 28 27 27 27 27 27 26 26 26
25 27 28 28 29 30 31 31 32 32 34 34 35 34 34 33 32 32 31 31 31 30 30 31 31 32 31 31 31 30 30 30 30 30 30 30 30 30 29 30 29 29 29 28 28 28 28 27 27
25 27 27 27 28 29 30 31 32 32 33 34 35 35 35 34 34 33 33 33 33 33 32 32 33 33 33 33 33 33 33 33 32 32 32 32 32 31 30 30 30 30 30 29 28 28 28 29 29
25 25 26 27 28 29 30 31 32 32 33 34 35 36 36 36 36 36 36 36 36 35 34 34 34 35 35 35 35 35 35 35 34 34 34 34 33 33 32 32 32 32 31 31 30 29 29 30 30
25 25 26 27 28 29 30 30 32 32 33 34 35 36 37 38 38 38 38 38 38 37 37 37 37 37 38 37 37 37 36 36 36 36 36 35 35 34 34 33 33 32 32 32 32 31 31 31 31
25 25 26 27 28 29 29 30 32 33 34 34 35 36 36 38 39 39 39 39 39 40 40 39 40 40 41 40 40 39 38 38 38 38 37 36 35 35 35 34 34 33 33 32 33 33 32 32 32
25 25 26 27 29 30 31 30 31 33 35 36 36 36 37 38 39 41 41 41 41 42 42 42 42 42 42 43 42 41 40 39 39 38 38 37 37 37 36 36 36 36 35 35 34 34 34 34 34
26 26 26 27 29 30 32 32 32 33 35 36 37 37 38 38 39 40 43 44 43 43 44 44 44 44 44 45 44 43 42 42 41 40 39 39 40 39 38 38 38 38 38 38 37 36 36 36 35
26 26 26 27 29 29 32 33 32 34 35 36 37 38 39 40 41 41 41 43 44 44 45 46 46 46 46 46 46 46 45 43 43 43 42 41 41 41 40 38 38 39 40 39 39 39 38 38 37
26 27 27 27 28 29 31 33 32 34 36 36 38 39 40 41 42 42 43 44 44 44 45 46 47 47 47 46 46 47 47 45 45 44 44 44 43 42 41 40 40 40 40 40 41 41 40 39 39
25 26 26 27 27 29 31 32 33 34 36 36 37 38 41 42 43 42 43 44 44 44 45 47 47 47 47 47 46 46 46 46 46 46 46 45 45 44 43 42 41 40 41 41 40 41 41 40 39
23 24 25 26 26 28 30 31 32 33 36 37 37 37 39 41 41 42 43 43 44 44 44 45 44 45 45 46 46 46 46 46 46 47 46 46 46 45 45 44 44 42 41 41 40 40 41 42 40
23 24 25 25 26 27 28 29 30 31 34 35 35 35 37 38 39 40 42 43 43 44 44 43 43 44 45 45 45 45 46 46 46 46 46 46 46 46 45 44 45 45 44 43 41 41 42 42 41
22 23 24 25 26 27 27 28 28 30 32 33 35 35 34 35 36 37 39 40 41 42 43 44 43 43 44 45 45 45 46 46 46 47 47 46 46 46 46 46 46 46 45 45 44 43 43 42 41
22 23 24 25 26 27 27 28 27 29 30 31 33 34 34 34 35 35 37 39 39 39 40 42 43 44 43 44 44 45 46 46 46 47 47 48 47 47 47 47 47 46 46 45 46 45 44 43 42
22 23 24 24 25 26 26 28 27 28 29 30 31 33 33 33 34 36 36 38 39 40 39 40 41 42 43 43 43 44 46 46 46 47 48 48 47 47 47 47 46 46 46 46 46 47 46 44 44
21 22 22 23 24 25 24 27 27 27 28 29 31 33 33 33 34 35 36 37 38 39 40 40 40 41 42 42 43 43 45 45 46 46 47 49 49 49 49 48 48 47 46 46 46 47 46 44 45
19 20 21 22 23 23 23 25 25 26 27 28 30 32 33 34 34 35 35 37 37 37 38 40 40 41 41 42 43 44 44 44 44 45 45 47 48 49 49 48 49 48 47 46 45 46 46 45 44
18 19 20 22 22 22 22 24 24 24 25 27 29 31 33 34 35 34 34 35 36 37 37 39 40 40 41 42 42 43 44 44 44 44 44 46 46 47 47 46 46 47 47 47 46 46 44 43 43
17 17 18 20 22 22 22 22 23 23 24 26 28 29 31 33 34 33 32 32 33 35 35 36 37 38 39 40 40 41 41 42 42 42 42 44 45 45 46 45 45 45 45 45 45 44 43 41 41
18 18 19 20 21 22 22 21 22 22 24 24 25 27 29 31 32 32 32 32 32 33 33 34 35 35 36 37 37 38 39 40 40 40 40 41 41 42 42 42 42 42 42 42 43 43 41 41 41
18 19 20 21 21 22 23 22 22 22 23 24 24 25 26 28 29 28 30 30 30 30 31 33 33 33 32 34 36 36 37 38 38 38 40 41 40 40 40 39 38 39 39 40 40 41 40 40 41
18 18 19 20 20 22 24 23 23 23 22 23 24 24 25 25 25 26 27 28 29 29 30 31 32 31 31 32 34 34 34 35 36 37 38 37 37 39 39 39 37 37 37 38 37 39 39 39 39
Wind_Direction
248 248 248 247 248 248 247 245 244 243 242 242 242 242 241 242 242 243 244 243 246 248 248 246 245 245 244 246 248 248 248 248 249 251 253 254 252 250 250 250 250 253 257 259 262 266 266 268 269
248 247 247 246 246 247 245 244 244 243 243 242 242 243 242 242 243 245 245 245 245 247 247 246 245 245 245 247 249 251 250 251 251 251 253 255 255 253 251 251 252 253 256 260 262 264 266 269 270
246 245 245 245 245 246 246 244 244 243 243 242 242 243 243 243 244 244 245 245 243 245 246 246 245 245 245 247 249 250 251 252 254 254 255 257 259 257 254 253 254 254 256 259 262 262 264 266 268
247 244 244 244 244 245 244 244 243 242 241 241 241 242 242 243 244 244 244 245 244 245 246 246 247 247 247 247 249 250 252 254 256 256 258 259 260 260 258 256 256 256 258 260 261 262 264 265 266
246 245 244 243 243 242 242 243 242 240 239 240 242 243 242 242 242 243 244 245 246 246 246 246 247 248 248 248 250 252 254 257 258 259 260 261 261 261 262 259 258 258 260 261 262 263 264 265 266
244 244 244 243 243 243 242 242 242 241 240 240 241 242 242 242 242 243 245 247 247 247 246 247 247 247 247 248 250 252 254 257 258 260 262 262 263 263 263 262 260 260 261 262 262 263 264 265 266
244 243 243 243 242 243 244 243 243 242 241 240 240 241 242 243 244 245 245 247 247 247 248 247 247 247 247 248 252 254 255 256 258 260 262 262 262 263 263 263 262 260 261 263 264 264 265 266 266
246 244 243 242 244 244 246 245 244 243 242 240 241 243 244 245 245 246 247 248 249 249 249 249 247 247 248 249 252 255 255 257 258 260 262 263 264 262 262 263 263 262 262 262 263 263 264 265 266
247 247 246 244 246 247 247 247 245 244 244 242 242 244 245 245 246 247 248 249 249 249 250 249 248 249 249 250 252 255 255 257 259 260 261 263 263 263 263 263 262 263 262 261 262 262 263 264 265
252 251 249 247 247 247 246 246 246 246 246 245 244 244 246 245 245 247 248 249 249 249 251 250 249 250 251 251 253 255 256 257 258 260 261 263 263 264 264 262 261 261 261 260 261 261 262 263 264
254 254 250 248 248 247 247 247 246 247 247 246 246 246 246 246 246 247 248 248 250 250 251 250 249 251 253 254 254 256 257 257 258 260 261 262 263 262 261 262 260 260 261 261 261 261 262 263 264
255 255 253 250 250 249 248 247 246 247 247 247 248 247 247 247 247 248 248 248 249 250 251 252 251 253 254 256 258 257 257 257 259 260 261 261 261 260 260 260 259 258 261 262 261 262 262 263 264
256 255 254 252 252 250 249 248 247 247 248 248 248 247 248 250 249 248 249 249 250 251 252 253 254 255 256 257 258 257 259 258 259 259 259 258 258 259 259 259 258 259 261 263 263 262 262 263 264
254 253 254 253 253 252 249 248 248 249 250 250 249 249 249 250 251 250 250 251 252 253 253 254 255 255 257 257 256 256 256 258 259 259 258 257 257 258 259 258 259 259 260 263 264 263 262 262 263
253 254 254 254 255 254 253 250 250 252 253 252 251 251 251 252 254 254 252 251 253 254 254 255 255 255 256 256 256 256 257 256 257 257 257 257 257 257 257 257 258 259 261 262 262 262 262 262 262
252 255 256 256 257 258 257 253 252 254 254 254 254 253 253 255 255 255 255 254 255 255 255 256 256 255 256 255 256 256 256 256 256 257 257 257 257 256 255 257 258 259 260 262 263 262 262 262 262
255 258 259 260 260 261 260 257 254 256 256 257 256 255 256 257 257 256 256 256 256 256 256 256 257 257 256 256 256 257 257 255 255 255 256 257 256 255 255 256 258 258 259 262 263 262 261 261 261
260 262 263 264 264 264 263 261 259 259 260 260 260 259 258 258 258 258 258 257 258 258 258 257 257 258 257 255 256 257 255 255 255 255 255 256 256 254 254 254 257 257 259 261 262 261 260 259 260
262 264 266 266 268 268 265 265 263 262 261 260 262 262 261 260 260 259 259 259 258 258 259 258 258 256 256 255 255 256 255 255 255 255 255 255 255 254 254 253 255 257 260 260 260 261 260 259 259
265 266 267 267 268 270 269 266 266 264 262 262 262 264 264 262 261 262 261 260 260 260 259 257 258 257 256 256 256 255 254 254 254 255 254 254 255 254 253 255 255 257 259 260 259 260 259 258 260
269 270 270 270 270 271 271 268 266 265 264 264 264 265 266 266 265 264 263 262 261 260 260 258 257 257 256 257 256 254 253 253 253 253 254 253 253 253 255 255 255 257 259 259 260 262 259 259 260
270 271 272 272 273 273 273 272 269 268 267 267 267 268 268 267 267 267 265 263 262 261 261 260 258 257 257 257 257 255 254 254 253 254 253 252 253 254 254 255 256 257 258 259 260 260 260 259 260
270 271 273 274 275 275 276 276 272 271 271 272 272 272 271 269 267 266 266 265 263 262 261 261 258 257 258 258 258 256 255 255 254 254 254 252 251 251 253 255 256 256 257 258 259 260 260 260 260
271 273 274 274 276 279 280 282 279 277 276 277 278 277 273 270 270 268 266 265 265 264 263 262 260 259 259 259 259 258 256 256 256 256 255 252 251 251 254 255 255 256 257 257 258 259 259 260 261
273 275 277 278 279 281 283 284 284 284 284 283 282 281 279 276 274 272 268 266 266 265 266 265 264 262 260 259 260 260 258 258 257 257 255 254 252 251 252 254 254 255 256 256 257 258 258 259 260
277 277 279 281 283 285 285 286 290 290 290 289 287 286 283 280 279 276 272 269 267 266 266 266 265 264 262 261 261 262 260 258 258 256 254 253 251 251 252 253 254 255 256 256 257 258 257 258 258
278 279 281 284 286 289 291 291 292 296 294 293 290 288 286 284 282 278 276 274 270 268 267 265 264 264 264 263 262 261 260 258 258 257 254 253 252 252 253 253 254 255 257 257 257 256 255 257 258
278 282 285 287 290 292 294 295 297 298 298 298 295 290 290 289 286 280 278 277 274 271 267 265 264 265 266 263 261 260 259 258 259 259 256 255 255 255 253 252 253 254 255 256 256 255 256 257 258
279 283 285 288 290 294 295 297 301 302 302 302 299 298 297 295 290 284 284 281 278 274 269 266 265 266 265 262 261 261 259 259 261 260 257 256 257 255 251 251 253 254 254 254 254 254 255 258 260
280 285 288 289 292 293 297 301 302 304 304 303 301 302 301 297 292 287 285 282 279 275 270 267 266 266 263 261 261 262 260 260 260 259 257 257 255 254 251 250 250 252 252 253 255 255 256 258 259
Height
5812 5813 5815 5816 5817 5817 5818 5822 5825 5827 5829 5831 5833 5835 5836 5839 5841 5844 5844 5844 5845 5846 5847 5848 5848 5849 5850 5851 5851 5851 5852 5852 5853 5853 5852 5852 5852 5852 5853 5853 5853 5853 5853 5853 5854 5853 5853 5853 5853
5805 5806 5808 5808 5808 5809 5813 5816 5819 5822 5824 5825 5827 5829 5831 5833 5835 5837 5838 5840 5841 5842 5843 5844 5845 5845 5846 5847 5848 5848 5848 5849 5849 5849 5849 5849 5849 5849 5850 5850 5850 5850 5850 5850 5851 5851 5851 5851 5851
5797 5799 5800 5800 5801 5804 5807 5811 5813 5815 5817 5820 5822 5823 5825 5828 5830 5832 5833 5835 5836 5837 5838 5839 5840 5841 5842 5843 5844 5844 5845 5845 5846 5846 5846 5846 5846 5846 5846 5846 5847 5847 5847 5847 5847 5847 5847 5847 5847
5790 5791 5792 5793 5794 5798 5801 5804 5806 5809 5811 5813 5816 5818 5820 5823 5825 5827 5828 5829 5831 5832 5833 5835 5836 5837 5838 5839 5839 5840 5841 5841 5842 5842 5842 5842 5842 5842 5842 5842 5843 5843 5843 5843 5843 5843 5843 5843 5844
5782 5784 5784 5785 5788 5792 5794 5797 5800 5802 5805 5807 5810 5812 5815 5817 5819 5821 5822 5824 5825 5827 5828 5830 5831 5832 5833 5834 5834 5835 5836 5837 5837 5838 5838 5838 5838 5838 5837 5838 5838 5838 5838 5838 5839 5839 5839 5839 5839
5775 5776 5778 5779 5782 5786 5788 5790 5793 5796 5798 5801 5803 5805 5808 5811 5813 5815 5817 5818 5819 5821 5822 5824 5825 5827 5828 5829 5829 5830 5831 5832 5832 5833 5833 5833 5833 5832 5832 5832 5833 5833 5833 5833 5833 5833 5833 5834 5834
5769 5770 5771 5774 5776 5779 5781 5784 5786 5789 5791 5794 5796 5799 5802 5805 5807 5809 5811 5812 5813 5815 5816 5817 5819 5820 5822 5823 5824 5824 5825 5826 5827 5827 5827 5827 5827 5827 5827 5827 5827 5827 5827 5827 5827 5827 5827 5827 5828
5762 5764 5765 5768 5770 5772 5775 5776 5779 5781 5784 5787 5789 5792 5795 5798 5800 5802 5804 5806 5807 5808 5809 5810 5812 5814 5815 5817 5818 5818 5819 5820 5820 5821 5821 5821 5821 5820 5820 5820 5820 5820 5820 5820 5820 5820 5821 5821 5821
5757 5759 5759 5761 5763 5765 5767 5769 5771 5773 5776 5779 5781 5785 5788 5791 5793 5795 5797 5799 5800 5801 5802 5803 5804 5806 5808 5810 5811 5812 5812 5813 5813 5814 5814 5814 5814 5813 5813 5813 5812 5812 5812 5812 5812 5813 5813 5814 5814
5751 5752 5754 5755 5756 5758 5759 5761 5763 5766 5768 5771 5774 5777 5779 5782 5785 5787 5789 5791 5792 5794 5795 5796 5797 5799 5801 5803 5804 5804 5805 5806 5806 5807 5807 5806 5806 5806 5805 5805 5804 5804 5804 5804 5805 5805 5805 5806 5807
5745 5746 5748 5748 5749 5751 5752 5754 5756 5758 5761 5763 5766 5768 5771 5774 5777 5780 5781 5783 5784 5786 5787 5789 5790 5791 5793 5795 5795 5796 5796 5797 5798 5798 5798 5798 5798 5797 5797 5797 5797 5796 5797 5797 5797 5797 5798 5798 5799
5740 5740 5741 5742 5742 5744 5745 5746 5749 5750 5754 5755 5757 5760 5762 5765 5768 5770 5773 5774 5776 5778 5779 5781 5782 5783 5784 5785 5787 5788 5788 5789 5789 5789 5789 5789 5789 5789 5789 5789 5789 5789 5789 5789 5789 5790 5790 5790 5791
5734 5734 5735 5735 5736 5737 5738 5739 5741 5743 5745 5747 5749 5752 5754 5756 5758 5761 5763 5765 5767 5769 5770 5772 5773 5774 5775 5776 5777 5778 5778 5779 5779 5779 5779 5780 5780 5780 5780 5780 5781 5781 5782 5782 5781 5782 5782 5782 5783
5727 5728 5728 5729 5730 5730 5731 5732 5734 5736 5737 5739 5741 5743 5746 5747 5749 5751 5753 5755 5757 5759 5761 5762 5763 5764 5765 5766 5766 5767 5768 5769 5769 5770 5770 5770 5771 5771 5772 5772 5773 5773 5774 5774 5774 5774 5773 5774 5775
5721 5722 5723 5723 5723 5723 5724 5726 5727 5728 5729 5731 5733 5735 5737 5738 5740 5742 5743 5745 5747 5749 5750 5751 5752 5753 5754 5755 5756 5756 5757 5758 5759 5759 5760 5760 5761 5762 5762 5763 5764 5765 5765 5765 5765 5765 5765 5766 5767
5715 5715 5716 5717 5716 5716 5718 5719 5721 5720 5720 5722 5724 5726 5727 5729 5730 5732 5733 5735 5736 5738 5739 5740 5741 5742 5743 5743 5744 5745 5746 5747 5748 5748 5749 5750 5751 5752 5753 5754 5755 5756 5756 5756 5756 5756 5756 5757 5758
5708 5709 5709 5710 5709 5709 5709 5711 5714 5712 5712 5714 5715 5716 5717 5719 5720 5721 5722 5724 5725 5726 5727 5728 5729 5730 5731 5731 5732 5733 5734 5735 5736 5737 5739 5739 5740 5741 5743 5745 5746 5746 5746 5747 5747 5747 5747 5748 5750
5703 5703 5703 5703 5702 5702 5702 5703 5704 5704 5703 5704 5705 5706 5707 5708 5709 5710 5711 5712 5713 5714 5715 5716 5717 5717 5718 5719 5720 5722 5723 5723 5725 5726 5728 5729 5730 5731 5733 5735 5736 5736 5737 5737 5737 5737 5738 5739 5741
5697 5697 5697 5697 5695 5695 5695 5695 5696 5695 5694 5695 5695 5696 5697 5697 5698 5698 5699 5700 5701 5702 5703 5704 5705 5705 5706 5707 5709 5710 5711 5712 5714 5715 5716 5717 5719 5720 5722 5724 5726 5726 5727 5728 5728 5729 5729 5730 5731
5691 5691 5691 5691 5689 5688 5688 5688 5687 5686 5686 5686 5686 5686 5687 5687 5687 5687 5688 5688 5689 5690 5691 5692 5692 5694 5695 5696 5697 5698 5700 5701 5702 5703 5705 5706 5708 5710 5712 5714 5715 5716 5717 5718 5718 5719 5720 5721 5722
5686 5686 5685 5684 5683 5682 5681 5681 5680 5679 5678 5677 5677 5676 5676 5676 5676 5676 5676 5676 5677 5678 5679 5680 5681 5682 5684 5684 5685 5686 5688 5690 5691 5692 5694 5696 5697 5700 5701 5703 5705 5705 5706 5707 5709 5710 5710 5712 5713
5680 5680 5679 5678 5677 5675 5675 5672 5673 5671 5670 5669 5668 5667 5667 5666 5666 5665 5665 5665 5666 5666 5667 5668 5669 5671 5672 5673 5674 5675 5677 5679 5681 5682 5683 5685 5687 5689 5690 5692 5694 5695 5696 5697 5698 5700 5701 5702 5703
5675 5674 5673 5672 5670 5669 5668 5665 5666 5665 5663 5662 5660 5659 5657 5656 5655 5654 5654 5654 5654 5654 5655 5656 5657 5658 5660 5661 5662 5664 5665 5667 5669 5670 5671 5673 5675 5677 5679 5681 5683 5684 5686 5687 5688 5690 5691 5692 5694
5669 5668 5667 5666 5664 5663 5662 5660 5659 5657 5656 5654 5652 5650 5648 5647 5645 5644 5643 5642 5642 5643 5644 5644 5645 5647 5648 5650 5651 5652 5654 5655 5657 5658 5660 5661 5663 5665 5667 5670 5672 5673 5675 5676 5678 5680 5681 5682 5684
5663 5663 5661 5659 5658 5657 5656 5653 5653 5651 5648 5646 5644 5641 5639 5637 5635 5633 5632 5631 5631 5632 5632 5633 5634 5635 5637 5638 5639 5640 5641 5643 5645 5646 5648 5649 5651 5653 5655 5657 5660 5662 5664 5666 5668 5669 5671 5672 5674
5657 5657 5656 5654 5653 5652 5650 5647 5647 5644 5641 5638 5635 5632 5630 5628 5625 5622 5620 5619 5619 5620 5621 5622 5623 5624 5625 5627 5628 5629 5629 5631 5633 5634 5635 5637 5639 5641 5643 5645 5648 5651 5653 5655 5657 5659 5660 5662 5664
5652 5651 5651 5649 5647 5645 5644 5642 5641 5637 5634 5631 5627 5624 5621 5619 5616 5614 5611 5610 5609 5609 5610 5611 5612 5614 5615 5616 5617 5617 5618 5620 5621 5623 5624 5625 5627 5629 5631 5634 5637 5640 5642 5644 5646 5649 5650 5652 5654
5648 5646 5645 5643 5640 5639 5638 5636 5634 5630 5627 5624 5620 5617 5614 5611 5607 5605 5603 5601 5601 5601 5601 5602 5603 5604 5604 5605 5605 5607 5608 5610 5611 5612 5613 5614 5616 5618 5621 5624 5627 5630 5632 5634 5636 5638 5640 5642 5644
5643 5641 5639 5637 5636 5633 5631 5632 5628 5624 5621 5617 5614 5610 5606 5603 5599 5598 5595 5593 5592 5592 5592 5593 5594 5595 5595 5596 5596 5598 5599 5600 5601 5602 5603 5604 5606 5608 5611 5615 5618 5620 5622 5624 5626 5629 5631 5633 5634
5636 5635 5634 5633 5631 5628 5625 5628 5622 5618 5614 5611 5607 5604 5600 5596 5593 5590 5588 5586 5585 5584 5584 5585 5585 5586 5587 5587 5588 5589 5590 5591 5592 5592 5593 5595 5597 5599 5603 5606 5609 5611 5613 5615 5617 5619 5621 5623 5625